| time (UTC) | temp F | wind direction | speed knots | gust knots | rain 1hr in | rain 24hr in | rain mn in | humidity % | barometer mb |
| 20260504223006 | 68 | 42 | 3.5 | 13.0 | 0.00 | 0.00 | 0.00 | 33 | 1005.6 |
| 20260504221507 | 70 | 136 | 4.3 | 10.4 | 0.00 | 0.00 | 0.00 | 29 | 1005.6 |
| 20260504220005 | 70 | 104 | 2.6 | 11.3 | 0.00 | 0.00 | 0.00 | 28 | 1005.6 |
| 20260504214507 | 71 | 201 | 3.5 | 7.8 | 0.00 | 0.00 | 0.00 | 27 | 1005.5 |
| 20260504213003 | 69 | 241 | 3.5 | 12.2 | 0.00 | 0.00 | 0.00 | 28 | 1005.6 |
| 20260504211502 | 69 | 229 | 1.7 | 8.7 | 0.00 | 0.00 | 0.00 | 27 | 1005.7 |
| 20260504210002 | 70 | 241 | 4.3 | 12.2 | 0.00 | 0.00 | 0.00 | 27 | 1005.6 |
| 20260504204501 | 70 | 211 | 4.3 | 13.9 | 0.00 | 0.00 | 0.00 | 27 | 1005.6 |
| 20260504203106 | 71 | 197 | 3.5 | 13.0 | 0.00 | 0.00 | 0.00 | 27 | 1005.6 |
| 20260504201559 | 72 | 181 | 5.2 | 12.2 | 0.00 | 0.00 | 0.00 | 26 | 1005.7 |
| 20260504194604 | 71 | 178 | 4.3 | 12.2 | 0.00 | 0.00 | 0.00 | 27 | 1005.7 |
| 20260504193057 | 71 | 261 | 4.3 | 9.6 | 0.00 | 0.00 | 0.00 | 26 | 1005.7 |
| 20260504191609 | 70 | 239 | 7.0 | 18.2 | 0.00 | 0.00 | 0.00 | 26 | 1005.7 |
| 20260504190053 | 71 | 223 | 3.5 | 10.4 | 0.00 | 0.00 | 0.00 | 26 | 1005.9 |
| 20260504184552 | 70 | 211 | 4.3 | 14.8 | 0.00 | 0.00 | 0.00 | 26 | 1006.2 |
| 20260504183053 | 70 | 186 | 3.5 | 15.6 | 0.00 | 0.00 | 0.00 | 25 | 1006.2 |
| 20260504181556 | 69 | 193 | 7.0 | 20.0 | 0.00 | 0.00 | 0.00 | 24 | 1006.2 |
| 20260504180048 | 70 | 330 | 3.5 | 18.2 | 0.00 | 0.00 | 0.00 | 25 | 1006.4 |
| 20260504174545 | 68 | 145 | 7.8 | 16.5 | 0.00 | 0.00 | 0.00 | 28 | 1006.7 |
| 20260504173043 | 68 | 223 | 5.2 | 15.6 | 0.00 | 0.00 | 0.00 | 27 | 1006.7 |
| 20260504171548 | 68 | 194 | 4.3 | 19.1 | 0.00 | 0.00 | 0.00 | 28 | 1006.7 |
| 20260504081535 | 44 | 199 | 0.9 | 4.3 | 0.00 | 0.00 | 0.00 | 56 | 1009.2 |
| 20260504050021 | 40 | 207 | 0.0 | 1.7 | 0.00 | 0.00 | 0.00 | 59 | 1009.3 |
| 20260504044520 | 40 | 209 | 0.0 | 1.7 | 0.00 | 0.00 | 0.00 | 62 | 1009.3 |
| 20260504043016 | 38 | 229 | 0.0 | 1.7 | 0.00 | 0.00 | 0.00 | 64 | 1009.1 |
| 20260504041514 | 37 | 202 | 0.0 | 1.7 | 0.00 | 0.00 | 0.00 | 64 | 1008.9 |
| 20260504040013 | 37 | 221 | 0.0 | 0.9 | 0.00 | 0.00 | 0.00 | 68 | 1008.9 |
| 20260504034509 | 36 | 236 | 0.0 | 1.7 | 0.00 | 0.00 | 0.00 | 73 | 1008.9 |
| 20260504033012 | 36 | 251 | 0.9 | 2.6 | 0.00 | 0.00 | 0.00 | 74 | 1008.8 |
| 20260504031506 | 36 | 225 | 0.0 | 1.7 | 0.00 | 0.00 | 0.00 | 73 | 1008.7 |
| 20260504030008 | 37 | 208 | 0.0 | 1.7 | 0.00 | 0.00 | 0.00 | 69 | 1008.6 |
| 20260504024502 | 37 | 208 | 0.0 | 1.7 | 0.00 | 0.00 | 0.00 | 67 | 1008.6 |
| 20260504023100 | 38 | 208 | 0.0 | 1.7 | 0.00 | 0.00 | 0.00 | 65 | 1008.5 |
| 20260504021558 | 39 | 208 | 0.0 | 1.7 | 0.00 | 0.00 | 0.00 | 64 | 1008.5 |
| 20260504020057 | 40 | 208 | 0.0 | 1.7 | 0.00 | 0.00 | 0.00 | 62 | 1008.4 |
| 20260504014556 | 41 | 208 | 0.0 | 0.0 | 0.00 | 0.00 | 0.00 | 60 | 1008.4 |
| 20260504013113 | 42 | 208 | 0.0 | 1.7 | 0.00 | 0.00 | 0.00 | 57 | 1008.3 |
| 20260504011556 | 42 | 208 | 0.0 | 1.7 | 0.00 | 0.00 | 0.00 | 55 | 1007.9 |
| 20260504010104 | 43 | 208 | 0.0 | 0.0 | 0.00 | 0.00 | 0.00 | 51 | 1007.9 |
| 20260504004607 | 44 | 208 | 0.0 | 0.0 | 0.00 | 0.00 | 0.00 | 48 | 1007.7 |
| 20260504003054 | 45 | 208 | 0.0 | 1.7 | 0.00 | 0.00 | 0.00 | 47 | 1007.5 |
| 20260504001554 | 46 | 208 | 0.0 | 0.0 | 0.00 | 0.00 | 0.00 | 44 | 1007.3 |
| 20260504000104 | 47 | 208 | 0.0 | 1.7 | 0.00 | 0.00 | 0.00 | 43 | 1007.3 |
| 20260503234553 | 48 | 301 | 0.0 | 1.7 | 0.00 | 0.00 | 0.00 | 43 | 1007.3 |
| 20260503233057 | 49 | 254 | 2.6 | 8.7 | 0.00 | 0.00 | 0.00 | 43 | 1007.0 |
| 20260503231553 | 49 | 244 | 0.0 | 6.1 | 0.00 | 0.00 | 0.00 | 43 | 1006.8 |
| 20260503230057 | 50 | 241 | 0.0 | 5.2 | 0.00 | 0.00 | 0.00 | 42 | 1006.8 |
| 20260503224552 | 50 | 303 | 2.6 | 7.0 | 0.00 | 0.00 | 0.00 | 42 | 1006.7 |